• In Russia
  • List of Countries
  • For 7 days
  • Water Temperature
  • Satellite Maps
  • Weather Map
  • Weather Widgets
  • user-avatar
    Login

    Hourly Weather Hobart

    Today, 23 September, Saturday

    Time Temperature Precipitation Wind Pressure Humidity
    00:00 +8°C° 0.1 mm 3 mps 739 mmHg 93%
    01:00 +8°C° 0.1 mm 3 mps 738 mmHg 92%
    02:00 +8°C° 0.1 mm 3 mps 737 mmHg 90%
    03:00 +8°C° 0.1 mm 3 mps 737 mmHg 88%
    04:00 +8°C° 0 mm 2 mps 736 mmHg 92%
    05:00 +8°C° 0 mm 3 mps 735 mmHg 89%
    06:00 +9°C° 0 mm 3 mps 735 mmHg 86%
    07:00 +10°C° 0 mm 3 mps 734 mmHg 82%
    08:00 +13°C° 0 mm 3 mps 734 mmHg 76%
    09:00 +17°C° 0 mm 3 mps 734 mmHg 69%
    10:00 +17°C° 0 mm 6 mps 733 mmHg 62%
    11:00 +17°C° 0.2 mm 5 mps 733 mmHg 63%
    12:00 +18°C° 0.2 mm 4 mps 732 mmHg 63%
    13:00 +18°C° 0.2 mm 3 mps 731 mmHg 64%
    14:00 +18°C° 0.2 mm 3 mps 730 mmHg 69%
    15:00 +17°C° 0.2 mm 2 mps 729 mmHg 73%
    16:00 +16°C° 0 mm 1 mps 728 mmHg 87%
    17:00 +15°C° 0.7 mm 1 mps 728 mmHg 90%
    18:00 +14°C° 0.7 mm 2 mps 728 mmHg 93%
    19:00 +13°C° 0.7 mm 2 mps 728 mmHg 97%
    20:00 +13°C° 0.4 mm 2 mps 727 mmHg 96%
    21:00 +12°C° 0.4 mm 2 mps 727 mmHg 96%
    22:00 +12°C° 0.4 mm 2 mps 727 mmHg 95%
    23:00 +10°C° 0 mm 3 mps 726 mmHg 94%

    Tomorrow, 24 September, Sunday

    Time Temperature Precipitation Wind Pressure Humidity
    00:00 +10°C° 0 mm 4 mps 726 mmHg 92%
    01:00 +9°C° 0 mm 5 mps 726 mmHg 90%
    02:00 +9°C° 0 mm 5 mps 726 mmHg 87%
    03:00 +9°C° 0 mm 5 mps 726 mmHg 83%
    04:00 +9°C° 0 mm 5 mps 725 mmHg 80%
    05:00 +9°C° 0 mm 5 mps 726 mmHg 78%
    06:00 +9°C° 0 mm 5 mps 726 mmHg 76%
    07:00 +10°C° 0 mm 6 mps 726 mmHg 75%
    08:00 +10°C° 0.2 mm 5 mps 726 mmHg 74%
    09:00 +12°C° 0.2 mm 5 mps 726 mmHg 74%
    10:00 +12°C° 0.2 mm 5 mps 727 mmHg 74%
    11:00 +12°C° 0.3 mm 5 mps 727 mmHg 72%
    12:00 +13°C° 0.3 mm 6 mps 727 mmHg 71%
    13:00 +12°C° 0.3 mm 7 mps 727 mmHg 69%
    14:00 +13°C° 0.2 mm 6 mps 727 mmHg 70%
    15:00 +11°C° 0.2 mm 6 mps 727 mmHg 70%
    16:00 +11°C° 0.2 mm 6 mps 727 mmHg 70%
    17:00 +10°C° 0.1 mm 5 mps 728 mmHg 75%
    18:00 +10°C° 0.1 mm 4 mps 728 mmHg 81%
    19:00 +9°C° 0.1 mm 3 mps 728 mmHg 87%
    20:00 +9°C° 0 mm 3 mps 729 mmHg 89%
    21:00 +9°C° 0 mm 3 mps 729 mmHg 92%
    22:00 +8°C° 0 mm 3 mps 729 mmHg 94%
    23:00 +8°C° 0 mm 3 mps 729 mmHg 93%

    Day after tomorrow, 25 September, Monday

    Time Temperature Precipitation Wind Pressure Humidity
    00:00 +6°C° 0 mm 4 mps 730 mmHg 92%
    01:00 +6°C° 0 mm 5 mps 730 mmHg 91%
    02:00 +5°C° 0 mm 6 mps 730 mmHg 88%
    03:00 +4°C° 0 mm 6 mps 731 mmHg 84%
    04:00 +4°C° 0 mm 7 mps 731 mmHg 81%
    05:00 +4°C° 0.1 mm 7 mps 731 mmHg 81%
    06:00 +5°C° 0.1 mm 7 mps 732 mmHg 80%
    07:00 +6°C° 0.1 mm 8 mps 733 mmHg 80%
    08:00 +6°C° 0.6 mm 7 mps 733 mmHg 84%
    09:00 +6°C° 0.6 mm 7 mps 734 mmHg 87%
    10:00 +7°C° 0.6 mm 6 mps 735 mmHg 90%
    11:00 +7°C° 0.9 mm 6 mps 736 mmHg 91%
    12:00 +7°C° 0.9 mm 6 mps 737 mmHg 91%
    13:00 +7°C° 0.9 mm 6 mps 737 mmHg 91%
    14:00 +7°C° 0.3 mm 6 mps 738 mmHg 89%
    15:00 +7°C° 0.3 mm 6 mps 739 mmHg 87%
    16:00 +7°C° 0.3 mm 6 mps 739 mmHg 85%
    17:00 +4°C° 0.1 mm 6 mps 740 mmHg 87%
    18:00 +3°C° 0.1 mm 5 mps 741 mmHg 89%
    19:00 +2°C° 0.1 mm 5 mps 742 mmHg 91%
    20:00 +3°C° 0.1 mm 4 mps 743 mmHg 92%
    21:00 +1°C° 0.1 mm 4 mps 743 mmHg 93%
    22:00 +1°C° 0.1 mm 4 mps 744 mmHg 94%
    23:00 +1°C° 0 mm 4 mps 744 mmHg 95%

    26 September, Tuesday

    Time Temperature Precipitation Wind Pressure Humidity
    00:00 0°C° 0 mm 4 mps 744 mmHg 95%
    01:00 0°C° 0 mm 4 mps 744 mmHg 95%
    02:00 0°C° 0 mm 4 mps 744 mmHg 95%
    03:00 0°C° 0 mm 4 mps 744 mmHg 95%
    04:00 0°C° 0 mm 4 mps 744 mmHg 95%
    05:00 0°C° 0 mm 4 mps 745 mmHg 93%
    06:00 +1°C° 0 mm 4 mps 745 mmHg 91%
    07:00 +1°C° 0 mm 4 mps 746 mmHg 89%
    08:00 +5°C° 0 mm 4 mps 746 mmHg 77%
    09:00 +7°C° 0 mm 4 mps 746 mmHg 64%
    10:00 +10°C° 0 mm 4 mps 746 mmHg 52%
    11:00 +11°C° 0 mm 3 mps 746 mmHg 50%
    12:00 +11°C° 0 mm 3 mps 746 mmHg 49%
    13:00 +12°C° 0 mm 3 mps 745 mmHg 47%
    14:00 +13°C° 0 mm 2 mps 745 mmHg 49%
    15:00 +12°C° 0 mm 2 mps 745 mmHg 50%
    16:00 +12°C° 0 mm 2 mps 745 mmHg 51%
    17:00 +9°C° 0 mm 2 mps 745 mmHg 61%
    18:00 +7°C° 0 mm 2 mps 745 mmHg 71%
    19:00 +5°C° 0 mm 2 mps 745 mmHg 81%
    20:00 +5°C° 0 mm 2 mps 745 mmHg 83%
    21:00 +6°C° 0 mm 1 mps 745 mmHg 85%
    22:00 +5°C° 0 mm 1 mps 745 mmHg 86%
    23:00 +5°C° 0 mm 1 mps 744 mmHg 87%

    27 September, Wednesday

    Time Temperature Precipitation Wind Pressure Humidity
    00:00 +5°C° 0 mm 1 mps 744 mmHg 88%
    01:00 +5°C° 0 mm 1 mps 743 mmHg 88%
    02:00 +5°C° 0 mm 1 mps 743 mmHg 89%
    03:00 +5°C° 0 mm 1 mps 742 mmHg 89%
    04:00 +5°C° 0 mm 1 mps 741 mmHg 89%
    05:00 +6°C° 0.3 mm 1 mps 741 mmHg 91%
    06:00 +6°C° 0.3 mm 1 mps 741 mmHg 92%
    07:00 +6°C° 0.3 mm 1 mps 740 mmHg 94%
    08:00 +6°C° 0.6 mm 1 mps 740 mmHg 95%
    09:00 +7°C° 0.6 mm 1 mps 739 mmHg 96%
    10:00 +7°C° 0.6 mm 1 mps 738 mmHg 96%
    11:00 +7°C° 0.7 mm 2 mps 738 mmHg 95%
    12:00 +7°C° 0.7 mm 3 mps 737 mmHg 93%
    13:00 +7°C° 0.7 mm 3 mps 736 mmHg 92%
    14:00 +7°C° 0.3 mm 3 mps 736 mmHg 93%
    15:00 +6°C° 0.3 mm 4 mps 736 mmHg 93%
    16:00 +6°C° 0.3 mm 4 mps 736 mmHg 94%
    17:00 +6°C° 0.1 mm 4 mps 737 mmHg 95%
    18:00 +5°C° 0.1 mm 4 mps 738 mmHg 96%
    19:00 +5°C° 0.1 mm 4 mps 739 mmHg 97%
    20:00 +4°C° 0 mm 4 mps 739 mmHg 97%
    21:00 +3°C° 0 mm 4 mps 740 mmHg 98%
    22:00 +1°C° 0 mm 4 mps 740 mmHg 98%
    23:00 +1°C° 0 mm 4 mps 740 mmHg 98%

    28 September, Thursday

    Time Temperature Precipitation Wind Pressure Humidity
    00:00 +1°C° 0 mm 4 mps 741 mmHg 98%
    01:00 +2°C° 0 mm 3 mps 741 mmHg 98%
    02:00 +2°C° 0 mm 3 mps 741 mmHg 98%
    03:00 +2°C° 0 mm 3 mps 741 mmHg 98%
    04:00 +2°C° 0 mm 3 mps 741 mmHg 98%
    05:00 +2°C° 0 mm 3 mps 741 mmHg 97%
    06:00 +3°C° 0 mm 3 mps 741 mmHg 96%
    07:00 +3°C° 0 mm 3 mps 742 mmHg 95%
    08:00 +5°C° 0 mm 4 mps 741 mmHg 85%
    09:00 +7°C° 0 mm 4 mps 741 mmHg 75%
    10:00 +9°C° 0 mm 5 mps 741 mmHg 64%
    11:00 +9°C° 0 mm 5 mps 741 mmHg 64%
    12:00 +9°C° 0 mm 5 mps 741 mmHg 63%
    13:00 +9°C° 0 mm 6 mps 740 mmHg 62%
    14:00 +9°C° 0 mm 6 mps 740 mmHg 62%
    15:00 +9°C° 0 mm 6 mps 740 mmHg 62%
    16:00 +10°C° 0 mm 6 mps 740 mmHg 62%
    17:00 +9°C° 0 mm 6 mps 740 mmHg 66%
    18:00 +8°C° 0 mm 6 mps 740 mmHg 71%
    19:00 +7°C° 0 mm 6 mps 740 mmHg 76%
    20:00 +5°C° 0.2 mm 6 mps 741 mmHg 80%
    21:00 +5°C° 0.2 mm 6 mps 741 mmHg 84%
    22:00 +5°C° 0.2 mm 6 mps 741 mmHg 88%
    23:00 +4°C° 0 mm 6 mps 741 mmHg 89%
    Show more